Location: Downe
(51.3167°N, 0.0500°E)
Time: 21:06:48
(UTC+00:00)

MSX - Pass Details

Date: 17 November 2019
Orbit: 895 x 906 km, 98.8° (Epoch: 08 December)

Event Time Altitude Azimuth Distance (km) Brightness Sun altitude
Rises 04:37:03 0° 13° (NNE) 3,529 7.1 -25.1°
Reaches altitude 10° 04:39:28 10° 11° (N) 2,585 6.3 -24.8°
Maximum altitude 04:45:10 67° 290° (WNW) 978 3.7 -23.9°
Enters shadow 04:47:15 40° 223° (SW) 1,312 4.3 -23.5°
